This demonstration page uses our WeatherBlox Daily Observations layout. Learn more.

Hourly Observations for December 6, 2019

Temp ( °F °C ) Dew Point ( °F °C ) Humidity (%) Winds ( mph kmh ) Pressure ( in mb ) Visibility ( mi km ) Precip ( " mm )
12:53 am 00:53 Clear 28 -2.2 26 -3.3 92 92 Calm 30.06 1018 10 16.09344 0 0
1:53 am 01:53 Mostly Clear 29 -1.7 27 -2.8 92 92 VRB 3 6 30.06 1018 10 16.09344 0 0
2:53 am 02:53 Mostly Clear 32 0 29 -1.7 88 88 Calm 30.03 1017 10 16.09344 0 0
3:53 am 03:53 Cloudy 35 1.7 31 -0.6 85 85 E 3 6 30.03 1017 10 16.09344 0 0
4:53 am 04:53 Mostly Cloudy 35 1.7 32 0 89 89 Calm 30.03 1017 10 16.09344 0 0
5:53 am 05:53 Mostly Cloudy 35 1.7 31 -0.6 85 85 Calm 30.03 1017 10 16.09344 0 0
6:53 am 06:53 Cloudy 37 2.8 32 0 82 82 Calm 30.06 1018 10 16.09344 0 0
7:53 am 07:53 Cloudy 41 5 32 0 70 70 Calm 30.06 1018 10 16.09344 0 0
8:53 am 08:53 Cloudy 48 8.9 32 0 54 54 WSW 7 11 30.06 1018 10 16.09344 0 0
9:53 am 09:53 Cloudy 50 10 32 0 50 50 WSW 8 13 30.09 1019 10 16.09344 0 0
10:53 am 10:53 Cloudy with Light Rain 48 8.9 32 0 54 54 WSW 7 11 30.12 1020 9 14.484096 0.01 0.254
11:53 am 11:53 Cloudy with Light Rain 48 8.9 32 0 54 54 W 3 6 30.12 1020 10 16.09344 0.01 0.254
12:53 pm 12:53 Cloudy 48 8.9 31 -0.6 52 52 WSW 5 7 30.12 1020 10 16.09344 0.001 0.001
1:53 pm 13:53 Cloudy 49 9.4 31 -0.6 50 50 NNW 9 15 30.12 1020 10 16.09344 0 0
2:27 pm 14:27 Cloudy 47 8.3 31 -0.6 54 54 NNW 10 17 30.15 1021 8 12.874752 0 0
2:53 pm 14:53 Cloudy 47 8.3 31 -0.6 54 54 N 9 15 30.15 1021 8 12.874752 0 0
3:53 pm 15:53 Cloudy 45 7.2 31 -0.6 58 58 N 10 17 30.18 1022 7 11.265408 0 0
4:53 pm 16:53 Cloudy 44 6.7 32 0 63 63 N 8 13 30.24 1024 8 12.874752 0 0
5:09 pm 17:09 Cloudy 44 6.7 32 0 63 63 NNE 10 17 30.24 1024 9 14.484096 0 0
5:53 pm 17:53 Mostly Cloudy 42 5.6 31 -0.6 65 65 N 6 9 30.27 1025 10 16.09344 0 0
6:53 pm 18:53 Clear 39 3.9 29 -1.7 67 67 N 8 13 30.27 1025 10 16.09344 0 0
7:53 pm 19:53 Clear 35 1.7 27 -2.8 72 72 Calm 30.3 1026 10 16.09344 0 0
8:53 pm 20:53 Clear 27 -2.8 25 -3.9 92 92 N 3 6 30.33 1027 10 16.09344 0 0
9:53 pm 21:53 Clear 26 -3.3 24 -4.4 92 92 Calm 30.33 1027 10 16.09344 0 0
10:53 pm 22:53 Clear 27 -2.8 23 -5 85 85 NNW 3 6 30.36 1028 10 16.09344 0 0
11:53 pm 23:53 Clear 25 -3.9 22 -5.6 88 88 Calm 30.36 1028 10 16.09344 0 0

Powered by AerisWeather